Location: Chiroubles
(46.1812°N, 4.6660°E)
Time: 22:59:44
(UTC+00:00)

SR - Pass Details

Date: 01 December 2020
Orbit: 575 x 880 km, 66.7° (Epoch: 24 January)

Event Time Altitude Azimuth Distance (km) Brightness Sun altitude
Rises 19:36:43 0° 271° (W) 2,875 ? -37.3°
Reaches altitude 10° 19:39:59 10° 298° (WNW) 2,026 ? -37.8°
Enters shadow 19:40:52 12° 308° (NW) 1,894 ? -38.0°
